Weather History for KCNO - January, 2014

Change the Weather History Date:

Friday, January 17, 2014

  Actual Average Record
Temperature  
Mean Temperature 64 °F -  
Max Temperature 84 °F 66 °F 84 °F (2011)
Min Temperature 44 °F 39 °F 27 °F (2007)
Degree Days  
Heating Degree Days 1    
Growing Degree Days 14 (Base 50)    
Moisture  
Dew Point 23 °F    
Average Humidity 28    
Maximum Humidity 56    
Minimum Humidity 6    
Precipitation  
Precipitation 0.00 in - - ()
Sea Level Pressure  
Sea Level Pressure 30.09 in    
Wind  
Wind Speed 4 mph (East)    
Max Wind Speed 12 mph    
Max Gust Speed -    
Visibility 9 miles    
Events      
Averages and records for this station are not official NWS values.
T = Trace of Precipitation, MM = Missing Value Source: NWS Daily Summary

Daily Weather History Graph

Daily Weather History Graph

Search for Another Location

Airport or City:

Trip Planner

Search our weather history database for the weather conditions in past years. The results will help you decide how hot, cold, wet, or windy it might be!

Date:

Astronomy

Jan. 17, 2014 Rise Set
Actual Time 6:55 AM PST 5:06 PM PST
Civil Twilight 6:28 AM PST 5:33 PM PST
Nautical Twilight 5:57 AM PST 6:04 PM PST
Astronomical Twilight 5:27 AM PST 6:34 PM PST
Moon 6:50 PM PST (1/17) 7:31 AM PST (1/17)
Length of Visible Light 11h 05m
Length of Day
10h 11m
Full, 98% of the Moon is Illuminated
Jan 17
Full
Jan 23
Last Quarter
Jan 30
New
Feb 6
First Quarter
Feb 14
Full

Hourly Weather History & Observations

Time (PST) Temp. Windchill Dew Point Humidity Pressure Visibility Wind Dir Wind Speed Gust Speed Precip Events Conditions
12:53 AM 66.9 °F - 12.0 °F 12% 30.08 in 9.0 mi East 9.2 mph - N/A   Clear
1:53 AM 57.9 °F - 14.0 °F 18% 30.09 in 8.0 mi Variable 3.5 mph - N/A   Clear
2:53 AM 48.9 °F - 24.1 °F 38% 30.10 in 7.0 mi Calm Calm - N/A   Clear
3:53 AM 48.0 °F - 27.0 °F 44% 30.11 in 7.0 mi Calm Calm - N/A   Clear
4:53 AM 44.1 °F - 26.1 °F 49% 30.11 in 7.0 mi Calm Calm - N/A   Clear
5:53 AM 45.0 °F 43.5 °F 26.1 °F 48% 30.12 in 7.0 mi NNE 3.5 mph - N/A   Clear
6:53 AM 45.0 °F - 25.0 °F 46% 30.12 in 10.0 mi Calm Calm - N/A   Clear
7:53 AM 55.9 °F - 21.0 °F 26% 30.14 in 10.0 mi Calm Calm - N/A   Clear
8:53 AM 64.0 °F - 34.0 °F 33% 30.15 in 10.0 mi Calm Calm - N/A   Clear
9:53 AM 75.9 °F - 18.0 °F 11% 30.15 in 10.0 mi SE 4.6 mph - N/A   Clear
10:53 AM 81.0 °F - 10.9 °F 7% 30.12 in 10.0 mi SE 11.5 mph - N/A   Clear
11:53 AM 82.9 °F - 10.9 °F 7% 30.08 in 10.0 mi SE 9.2 mph - N/A   Clear
12:53 PM 84.0 °F - 9.0 °F 6% 30.06 in 10.0 mi SE 10.4 mph - N/A   Clear
1:53 PM 84.9 °F - 10.0 °F 6% 30.04 in 10.0 mi SE 10.4 mph - N/A   Clear
2:53 PM 84.0 °F - 17.1 °F 8% 30.03 in 10.0 mi East 5.8 mph - N/A   Clear
3:53 PM 84.0 °F - 16.0 °F 8% 30.03 in 10.0 mi East 4.6 mph - N/A   Partly Cloudy
4:53 PM 75.9 °F - 25.0 °F 15% 30.04 in 10.0 mi East 4.6 mph - N/A   Partly Cloudy
5:53 PM 64.0 °F - 33.1 °F 31% 30.06 in 10.0 mi North 4.6 mph - N/A   Partly Cloudy
6:53 PM 64.9 °F - 26.1 °F 23% 30.07 in 10.0 mi Calm Calm - N/A   Clear
7:53 PM 55.9 °F - 32.0 °F 40% 30.08 in 9.0 mi Calm Calm - N/A   Clear
8:53 PM 51.1 °F - 33.1 °F 50% 30.09 in 10.0 mi Calm Calm - N/A   Clear
9:53 PM 52.0 °F - 30.9 °F 45% 30.09 in 6.0 mi Calm Calm - N/A   Haze
10:53 PM 48.9 °F - 34.0 °F 56% 30.08 in 7.0 mi Calm Calm - N/A   Clear
11:53 PM 46.9 °F - 30.9 °F 54% 30.07 in 6.0 mi NE 4.6 mph - N/A   Haze